Arvin
DateTemperatureDew Point
05/09 - 07:30 AM66.9°55.6°
05/09 - 07:15 AM64.8°54.0°
05/09 - 07:00 AM62.8°51.5°
05/09 - 06:45 AM61.2°50.5°
05/09 - 06:30 AM59.3°49.0°
05/09 - 06:15 AM57.0°48.0°
05/09 - 06:00 AM55.6°48.1°
05/09 - 05:45 AM54.7°47.8°
05/09 - 05:30 AM54.1°48.1°
05/09 - 05:15 AM54.4°48.3°
05/09 - 05:00 AM55.0°48.5°
05/09 - 04:45 AM55.3°48.3°
05/09 - 04:30 AM55.7°48.4°
05/09 - 04:15 AM55.5°48.4°
05/09 - 04:00 AM56.4°49.3°
05/09 - 03:45 AM57.8°49.1°
05/09 - 03:30 AM59.1°49.0°
05/09 - 03:15 AM60.4°49.2°
05/09 - 03:00 AM60.3°48.2°
05/09 - 02:45 AM59.7°48.2°
05/09 - 02:30 AM59.6°47.7°
05/09 - 02:15 AM59.1°48.4°
05/09 - 02:00 AM59.5°49.4°
05/09 - 01:45 AM59.8°48.2°
05/09 - 01:30 AM59.8°49.2°
05/09 - 01:15 AM59.8°48.5°
05/09 - 01:00 AM59.4°48.9°
05/09 - 12:45 AM59.7°49.9°
05/09 - 12:30 AM60.2°50.0°
05/09 - 12:15 AM60.7°50.3°
05/09 - 12:00 AM61.5°51.7°
05/08 - 11:45 PM63.6°52.1°
05/08 - 11:30 PM66.5°52.6°
05/08 - 11:15 PM68.5°51.1°
05/08 - 11:00 PM69.0°50.3°
05/08 - 10:45 PM69.2°51.1°
05/08 - 10:30 PM69.8°51.6°
05/08 - 10:15 PM69.5°51.7°
05/08 - 10:00 PM68.7°52.0°
05/08 - 09:45 PM67.8°52.2°
05/08 - 09:30 PM66.0°52.4°
05/08 - 09:15 PM65.6°53.4°
05/08 - 09:00 PM66.1°53.8°
05/08 - 08:45 PM66.6°54.8°
05/08 - 08:30 PM67.2°55.8°
05/08 - 08:15 PM67.8°57.6°
05/08 - 08:00 PM69.0°59.2°
05/08 - 07:45 PM70.9°60.3°
05/08 - 07:30 PM73.7°60.8°
05/08 - 07:15 PM77.2°60.8°
05/08 - 07:00 PM80.5°61.0°
05/08 - 06:45 PM82.7°58.3°
05/08 - 06:30 PM84.0°57.6°
05/08 - 06:15 PM85.3°58.3°
05/08 - 06:00 PM86.2°57.9°
05/08 - 05:45 PM86.7°56.5°
05/08 - 05:30 PM87.3°56.2°
05/08 - 05:15 PM87.8°56.4°
05/08 - 05:00 PM88.7°57.3°
05/08 - 04:45 PM89.1°58.1°
05/08 - 04:30 PM89.4°56.9°
05/08 - 04:15 PM90.0°58.0°
05/08 - 04:00 PM90.0°58.7°
05/08 - 03:45 PM89.8°58.3°
05/08 - 03:30 PM90.0°58.4°
05/08 - 03:15 PM89.7°58.2°
05/08 - 03:00 PM90.4°59.7°
05/08 - 02:45 PM90.2°59.4°
05/08 - 02:30 PM89.9°59.1°
05/08 - 02:15 PM89.8°59.4°
05/08 - 02:00 PM89.4°59.4°
05/08 - 01:45 PM89.8°60.0°
05/08 - 01:30 PM89.3°59.2°
05/08 - 01:15 PM89.3°59.2°
05/08 - 01:00 PM89.5°59.2°
05/08 - 12:45 PM88.7°58.9°
05/08 - 12:30 PM87.7°59.2°
05/08 - 12:15 PM87.5°60.9°
05/08 - 12:00 PM86.6°61.2°
05/08 - 11:45 AM86.0°61.6°
05/08 - 11:30 AM85.5°62.3°
05/08 - 11:15 AM84.3°61.6°
05/08 - 11:00 AM83.6°61.2°
05/08 - 10:45 AM82.7°61.7°
05/08 - 10:30 AM81.8°61.9°
05/08 - 10:15 AM80.8°61.9°
05/08 - 10:00 AM79.8°61.4°
05/08 - 09:45 AM79.1°61.4°
05/08 - 09:30 AM78.3°61.4°
05/08 - 09:15 AM77.5°60.7°
05/08 - 09:00 AM76.8°60.9°
05/08 - 08:45 AM75.9°60.9°
05/08 - 08:30 AM74.8°61.0°
05/08 - 08:15 AM73.3°62.1°
05/08 - 08:00 AM71.2°62.5°
05/08 - 07:45 AM69.0°62.2°
05/08 - 07:30 AM66.8°61.6°
05/08 - 07:15 AM64.7°60.5°
05/08 - 07:00 AM62.9°58.8°
05/08 - 06:45 AM61.8°58.1°
05/08 - 06:30 AM61.4°57.7°
05/08 - 06:15 AM61.0°56.9°
05/08 - 06:00 AM61.1°56.8°
05/08 - 05:45 AM61.7°57.0°
05/08 - 05:30 AM62.0°57.1°
05/08 - 05:15 AM61.2°56.7°
05/08 - 05:00 AM60.2°56.3°
05/08 - 04:45 AM59.0°55.6°
05/08 - 04:30 AM59.0°55.5°
05/08 - 04:15 AM59.1°55.6°
05/08 - 04:00 AM59.2°55.6°
05/08 - 03:45 AM58.9°55.3°
05/08 - 03:30 AM59.0°55.2°
05/08 - 03:15 AM59.4°55.3°
05/08 - 03:00 AM59.6°55.5°
05/08 - 02:45 AM59.5°55.5°
05/08 - 02:30 AM59.8°55.2°
05/08 - 02:15 AM60.1°55.4°
05/08 - 02:00 AM60.3°55.6°
05/08 - 01:45 AM60.5°55.6°
05/08 - 01:30 AM61.1°55.7°
05/08 - 01:15 AM61.6°55.9°
05/08 - 01:00 AM61.6°55.9°
05/08 - 12:45 AM61.6°56.4°
05/08 - 12:30 AM62.7°56.8°
05/08 - 12:15 AM64.0°56.8°
05/08 - 12:00 AM65.1°56.7°
05/07 - 11:45 PM66.0°56.3°
05/07 - 11:30 PM66.7°56.2°
05/07 - 11:15 PM66.6°56.1°
05/07 - 11:00 PM67.0°56.4°
05/07 - 10:45 PM67.4°56.3°
05/07 - 10:30 PM68.0°56.6°
05/07 - 10:15 PM68.5°56.3°
05/07 - 10:00 PM68.6°56.4°
05/07 - 09:45 PM68.5°56.6°
05/07 - 09:30 PM68.0°56.8°
05/07 - 09:15 PM67.2°56.9°
05/07 - 09:00 PM66.4°57.3°
05/07 - 08:45 PM66.4°58.5°
05/07 - 08:30 PM66.8°59.2°
05/07 - 08:15 PM67.7°60.1°
05/07 - 08:00 PM68.9°60.8°
05/07 - 07:45 PM70.4°62.2°
05/07 - 07:30 PM73.1°63.5°
05/07 - 07:15 PM76.4°63.3°
05/07 - 07:00 PM79.1°62.8°
05/07 - 06:45 PM80.8°61.1°
05/07 - 06:30 PM82.1°61.0°
05/07 - 06:15 PM82.9°58.9°
05/07 - 06:00 PM83.7°59.4°
05/07 - 05:45 PM84.3°59.0°
05/07 - 05:30 PM84.8°58.3°
05/07 - 05:15 PM85.4°57.8°
05/07 - 05:00 PM86.0°58.3°
05/07 - 04:45 PM86.4°58.6°
05/07 - 04:30 PM87.1°59.5°
05/07 - 04:15 PM87.5°59.8°
05/07 - 04:00 PM87.8°60.1°
05/07 - 03:45 PM88.3°60.2°
05/07 - 03:30 PM88.4°59.8°
05/07 - 03:15 PM87.8°58.9°
05/07 - 03:00 PM87.7°58.8°
05/07 - 02:45 PM87.9°59.6°
05/07 - 02:30 PM87.9°59.5°
05/07 - 02:15 PM88.1°59.7°
05/07 - 02:00 PM87.6°58.5°
05/07 - 01:45 PM87.6°58.6°
05/07 - 01:30 PM87.0°58.8°
05/07 - 01:15 PM86.5°59.2°
05/07 - 01:00 PM86.4°59.2°
05/07 - 12:45 PM85.8°59.3°
05/07 - 12:30 PM85.6°59.7°
05/07 - 12:15 PM84.3°58.8°
05/07 - 12:00 PM83.7°58.5°
05/07 - 11:45 AM82.6°58.3°
05/07 - 11:30 AM82.2°58.1°
05/07 - 11:15 AM81.4°58.4°
05/07 - 11:00 AM80.2°58.1°
05/07 - 10:45 AM79.4°58.1°
05/07 - 10:30 AM78.5°58.5°
05/07 - 10:15 AM77.0°57.9°
05/07 - 10:00 AM76.0°57.7°
05/07 - 09:45 AM74.8°57.5°
05/07 - 09:30 AM74.0°57.3°
05/07 - 09:15 AM72.9°56.9°
05/07 - 09:00 AM72.1°56.8°
05/07 - 08:45 AM71.2°56.3°
05/07 - 08:30 AM70.2°56.0°
05/07 - 08:15 AM68.6°55.7°